This demonstration page uses our WeatherBlox Daily Observations layout. Learn more.

38.88101, -77.10428

Hourly Observations for August 2, 2015

Temp ( °F °C ) Dew Point ( °F °C ) Humidity (%) Winds ( mph kmh ) Pressure ( in mb ) Visibility ( mi km ) Precip ( " mm )
12:52 am 00:52 Mostly Cloudy 80 26.7 59 15 49 49 NNW 5 7 29.91 1013 10 16.0934 0 0
1:52 am 01:52 Partly Cloudy 77 25 60 15.6 56 56 N 5 7 29.92 1013 10 16.0934 0 0
2:52 am 02:52 Partly Cloudy 77 25 61 16.1 58 58 N 6 9 29.92 1013 10 16.0934 0 0
3:52 am 03:52 Mostly Cloudy 77 25 59 15 54 54 NNW 6 9 29.92 1013 10 16.0934 0 0
4:52 am 04:52 Mostly Clear 74 23.3 59 15 60 60 NNW 5 7 29.91 1013 10 16.0934 0 0
5:52 am 05:52 Partly Cloudy 74 23.3 60 15.6 62 62 N 6 9 29.92 1013 10 16.0934 0 0
6:52 am 06:52 Mostly Cloudy 74 23.3 60 15.6 62 62 N 6 9 29.94 1014 10 16.0934 0 0
7:52 am 07:52 Mostly Cloudy 77 25 61 16.1 58 58 Calm 29.95 1014 10 16.0934 0 0
8:52 am 08:52 Mostly Cloudy 79 26.1 60 15.6 52 52 N 6 9 29.96 1015 10 16.0934 0 0
9:52 am 09:52 Mostly Cloudy 81 27.2 61 16.1 51 51 VRB 6 9 29.97 1015 10 16.0934 0 0
10:52 am 10:52 Mostly Cloudy 85 29.4 63 17.2 48 48 NNE 5 7 29.98 1015 10 16.0934 0 0
11:52 am 11:52 Mostly Cloudy 85 29.4 62 16.7 46 46 E 3 6 29.98 1015 10 16.0934 0 0
12:52 pm 12:52 Mostly Cloudy 89 31.7 58 14.4 35 35 Calm 29.97 1015 10 16.0934 0 0
1:52 pm 13:52 Mostly Cloudy 89 31.7 58 14.4 35 35 SE 3 6 29.95 1014 10 16.0934 0 0
2:52 pm 14:52 Mostly Cloudy 87 30.6 58 14.4 37 37 SE 5 7 29.94 1014 10 16.0934 0 0
3:52 pm 15:52 Mostly Cloudy 90 32.2 56 13.3 32 32 SW 13 20 29.93 1014 10 16.0934 0 0
4:52 pm 16:52 Mostly Cloudy 87 30.6 58 14.4 37 37 SSW 13 20 29.93 1013 10 16.0934 0 0
5:52 pm 17:52 Mostly Cloudy 87 30.6 60 15.6 40 40 SSW 13 20 29.92 1013 10 16.0934 0 0
6:52 pm 18:52 Partly Cloudy 86 30 59 15 40 40 SSW 14 22 29.91 1013 10 16.0934 0 0
7:52 pm 19:52 Partly Cloudy 85 29.4 58 14.4 40 40 SW 9 15 29.91 1013 10 16.0934 0 0
8:52 pm 20:52 Mostly Clear 84 28.9 59 15 43 43 W 9 15 29.91 1013 10 16.0934 0 0
9:52 pm 21:52 Clear 80 26.7 61 16.1 52 52 S 7 11 29.92 1013 10 16.0934 0 0
10:52 pm 22:52 Clear 78 25.6 62 16.7 58 58 S 8 13 29.91 1013 10 16.0934 0 0
11:52 pm 23:52 Clear 77 25 64 17.8 64 64 SSW 5 7 29.9 1013 10 16.0934 0 0

Powered by AerisWeather